Regional Weather Roundup
Issued by NWS

Home | Current Version | Previous Version | Graphics & Text | Print | Product List | Glossary On
Versions: 1 2 3 4 5 6 7 8 9 10 11 12 13 14 15 16 17 18 19 20 21 22 23 24 25 26 27 28 29 30 31 32 33 34 35 36 37 38 39 40 41 42 43 44 45 46 47 48 49 50
000
ASUS45 KCYS 132010
RWRWY

WYOMING REGIONAL WEATHER ROUNDUP
NATIONAL WEATHER SERVICE CHEYENNE WY
100 PM MST SAT FEB 13 2016

NOTE:  "FAIR" INDICATES FEW OR NO CLOUDS BELOW 12,000 FEET
WITH NO SIGNIFICANT WEATHER AND/OR OBSTRUCTIONS TO VISIBILITY.

WYZ001-132100-
YELLOWSTONE NATIONAL PARK

CITY           SKY/WX    TMP DP  RH WIND       PRES   REMARKS
LK YELLOWSTONE   N/A     28  21  75 W13G21    30.06R WCI  17
W YELLOWSTONE  NOT AVBL

$$
WYZ002>013-054>058-071-098>099-132100-
NORTHERN WYOMING

CITY           SKY/WX    TMP DP  RH WIND       PRES   REMARKS
JACKSON        PTSUNNY   39  23  52 S28G41    30.07R WCI  28
CODY           PTSUNNY   43  28  56 W21G44    29.92R
GREYBULL       LGT RAIN  48  30  49 NW45G54   29.85S
WORLAND        FAIR      50  34  54 N3        29.80F
SHERIDAN         N/A     41  32  70 NW38      29.82R
BUFFALO        FAIR      58  28  32 CALM      29.81F
GILLETTE       FAIR      60  29  30 W14G20    29.76F
HULETT         FAIR      52  32  46 SW10      29.79F
NEWCASTLE      FAIR      46  28  49 S5        29.85F

$$
WYZ014>020-022>026-101>103-132100-
CENTRAL WYOMING

CITY           SKY/WX    TMP DP  RH WIND       PRES   REMARKS
BIG PINEY      FAIR      43  22  43 NW23G36   30.11F
PINEDALE         N/A     41  27  56 W17G29    30.10F
DUBOIS         FAIR      43  10  26 W45G70    29.92F HAZE
LANDER         FAIR      50  17  27 W31G46    29.91F
RIVERTON       FAIR      51  22  31 SW25G31   29.94F
CASPER         FAIR      47  22  37 SW30G40   29.91F
DOUGLAS        FAIR      53  25  33 W16       29.90F

$$
WYZ021-027>030-104>119-132100-
SOUTHERN WYOMING

CITY           SKY/WX    TMP DP  RH WIND       PRES   REMARKS
EVANSTON       FAIR      40  22  48 SW13      30.23F WCI  32
KEMMERER       FAIR      37  25  60 W20G25    30.18F WCI  27
FORT BRIDGER   CLEAR     41  27  56 W18       30.23F
ROCK SPRINGS   FAIR      43  21  41 W24       30.14F
DIXON          MOCLDY    42  21  43 SW8       30.21F
RAWLINS        FAIR      40  21  46 SW25G36   30.08F WCI  29
SARATOGA       FAIR      41  25  52 SW23      30.11F
LARAMIE        CLOUDY    47  15  27 W26G36    30.04F
CHEYENNE       FAIR      58  13  17 W23G33    29.98F
TORRINGTON     FAIR      45  32  60 SE8       29.87F

$$



USA.gov is the U.S. government's official web portal to all federal, state and local government web resources and services.